Time,TemperatureF,DewpointF,PressureIn,WindDirection,WindDirectionDegrees,WindSpeedMPH,WindSpeedGustMPH,Humidity,HourlyPrecipIn,Conditions,Clouds,dailyrainin,SolarRadiationWatts/m^2,SoftwareType,DateUTC
2013-06-19 00:02:00,62.0,61.0,29.87,NE,39,0.0,4.0,95,0.00,,,0.00,0.000000,,2013-06-19 04:02:00,
2013-06-19 00:12:00,62.0,61.0,29.87,NE,39,0.0,4.0,95,0.00,,,0.00,0.000000,,2013-06-19 04:12:00,
2013-06-19 00:23:00,61.0,60.0,29.84,North,1,0.0,4.0,96,0.00,,,0.00,0.000000,,2013-06-19 04:23:00,
2013-06-19 00:33:00,61.0,60.0,29.84,North,1,0.0,4.0,96,0.00,,,0.00,0.000000,,2013-06-19 04:33:00,
2013-06-19 00:43:00,61.0,60.0,29.84,North,1,0.0,4.0,96,0.00,,,0.00,0.000000,,2013-06-19 04:43:00,
2013-06-19 00:53:00,61.0,60.0,29.84,North,1,0.0,4.0,96,0.00,,,0.00,0.000000,,2013-06-19 04:53:00,
2013-06-19 01:01:00,61.0,60.0,29.84,NNW,328,0.0,8.0,97,0.01,,,0.01,0.000000,,2013-06-19 05:01:00,
2013-06-19 01:11:00,61.0,60.0,29.84,NNW,328,0.0,8.0,97,0.01,,,0.01,0.000000,,2013-06-19 05:11:00,
2013-06-19 01:23:00,61.0,60.0,29.84,NNW,328,0.0,8.0,97,0.01,,,0.01,0.000000,,2013-06-19 05:23:00,
2013-06-19 01:32:00,61.0,60.0,29.84,NNW,328,0.0,8.0,97,0.01,,,0.01,0.000000,,2013-06-19 05:32:00,
2013-06-19 01:43:00,61.0,60.0,29.84,NNW,328,0.0,8.0,97,0.01,,,0.01,0.000000,,2013-06-19 05:43:00,
2013-06-19 02:02:00,60.0,59.0,29.83,NNE,21,7.0,15.0,97,0.01,,,0.02,0.000000,,2013-06-19 06:02:00,
2013-06-19 02:11:00,60.0,59.0,29.83,NNE,21,7.0,15.0,97,0.01,,,0.02,0.000000,,2013-06-19 06:11:00,
2013-06-19 02:22:00,60.0,59.0,29.83,NNE,21,7.0,15.0,97,0.01,,,0.02,0.000000,,2013-06-19 06:22:00,
2013-06-19 02:34:00,59.0,58.0,29.83,North,9,4.0,15.0,97,0.00,,,0.02,0.000000,,2013-06-19 06:34:00,
2013-06-19 02:42:00,59.0,58.0,29.83,North,9,4.0,15.0,97,0.00,,,0.02,0.000000,,2013-06-19 06:42:00,
2013-06-19 02:52:00,59.0,58.0,29.83,North,2,7.0,17.0,97,0.00,,,0.02,0.000000,,2013-06-19 06:52:00,
2013-06-19 03:01:00,59.0,58.0,29.83,NNE,18,7.0,16.0,97,0.00,,,0.02,0.000000,,2013-06-19 07:01:00,
2013-06-19 03:12:00,59.0,58.0,29.83,NNE,18,7.0,16.0,97,0.00,,,0.02,0.000000,,2013-06-19 07:12:00,
2013-06-19 03:22:00,59.0,58.0,29.83,NNE,18,7.0,16.0,97,0.00,,,0.02,0.000000,,2013-06-19 07:22:00,
2013-06-19 03:33:00,59.0,58.0,29.84,NNE,23,7.0,16.0,96,0.00,,,0.02,0.000000,,2013-06-19 07:33:00,
2013-06-19 03:43:00,59.0,58.0,29.84,NNE,12,7.0,20.0,96,0.00,,,0.02,0.000000,,2013-06-19 07:43:00,
2013-06-19 03:53:00,59.0,58.0,29.84,North,359,7.0,17.0,95,0.00,,,0.02,0.000000,,2013-06-19 07:53:00,
2013-06-19 04:02:00,59.0,57.0,29.84,North,358,6.0,15.0,94,0.00,,,0.02,0.000000,,2013-06-19 08:02:00,
2013-06-19 04:11:00,59.0,57.0,29.84,North,358,6.0,15.0,94,0.00,,,0.02,0.000000,,2013-06-19 08:11:00,
2013-06-19 04:22:00,59.0,57.0,29.84,North,358,6.0,15.0,94,0.00,,,0.02,0.000000,,2013-06-19 08:22:00,
2013-06-19 04:34:00,59.0,57.0,29.83,North,8,5.0,13.0,92,0.00,,,0.02,0.000000,,2013-06-19 08:34:00,
2013-06-19 04:43:00,59.0,57.0,29.83,North,8,5.0,13.0,92,0.00,,,0.02,0.000000,,2013-06-19 08:43:00,
2013-06-19 04:54:00,59.0,57.0,29.83,North,8,5.0,13.0,92,0.00,,,0.02,0.000000,,2013-06-19 08:54:00,
2013-06-19 05:02:00,59.0,56.0,29.84,NNE,23,5.0,11.0,89,0.00,,,0.02,0.000000,,2013-06-19 09:02:00,
2013-06-19 05:12:00,59.0,56.0,29.84,NNE,23,5.0,11.0,89,0.00,,,0.02,0.000000,,2013-06-19 09:12:00,
2013-06-19 05:22:00,59.0,56.0,29.84,NNE,23,5.0,11.0,89,0.00,,,0.02,0.000000,,2013-06-19 09:22:00,
2013-06-19 05:34:00,59.0,54.0,29.85,North,8,3.0,11.0,85,0.00,,,0.02,0.000000,,2013-06-19 09:34:00,
2013-06-19 05:44:00,59.0,55.0,29.85,NNE,28,4.0,12.0,87,0.01,,,0.03,0.000000,,2013-06-19 09:44:00,
2013-06-19 05:53:00,59.0,55.0,29.85,NNE,28,4.0,12.0,87,0.01,,,0.03,0.000000,,2013-06-19 09:53:00,
2013-06-19 06:02:00,58.0,54.0,29.85,NE,37,6.0,15.0,88,0.05,,,0.07,0.000000,,2013-06-19 10:02:00,
2013-06-19 06:12:00,58.0,54.0,29.85,NE,37,6.0,15.0,88,0.05,,,0.07,0.000000,,2013-06-19 10:12:00,
2013-06-19 06:22:00,59.0,54.0,29.85,NNE,28,6.0,16.0,85,0.00,,,0.07,21.000000,,2013-06-19 10:22:00,
2013-06-19 06:33:00,59.0,54.0,29.85,NNE,13,6.0,19.0,83,0.00,,,0.07,23.000000,,2013-06-19 10:33:00,
2013-06-19 06:42:00,59.0,54.0,29.86,NE,37,7.0,16.0,82,0.00,,,0.07,40.000000,,2013-06-19 10:42:00,
2013-06-19 06:53:00,59.0,54.0,29.86,NE,37,7.0,16.0,82,0.00,,,0.07,40.000000,,2013-06-19 10:53:00,
2013-06-19 07:02:00,60.0,55.0,29.86,NNE,27,6.0,14.0,83,0.00,,,0.07,51.000000,,2013-06-19 11:02:00,
2013-06-19 07:12:00,60.0,56.0,29.87,North,9,4.0,17.0,86,0.00,,,0.07,62.000000,,2013-06-19 11:12:00,
2013-06-19 07:22:00,60.0,56.0,29.87,North,3,5.0,14.0,86,0.00,,,0.07,72.000000,,2013-06-19 11:22:00,
2013-06-19 07:33:00,60.0,56.0,29.87,North,3,5.0,14.0,86,0.00,,,0.07,72.000000,,2013-06-19 11:33:00,
2013-06-19 07:43:00,60.0,56.0,29.87,North,3,5.0,14.0,86,0.00,,,0.07,72.000000,,2013-06-19 11:43:00,
2013-06-19 07:54:00,60.0,56.0,29.87,North,3,5.0,14.0,86,0.00,,,0.07,72.000000,,2013-06-19 11:54:00,
2013-06-19 08:02:00,60.0,55.0,29.90,NNE,25,5.0,17.0,84,0.00,,,0.07,137.000000,,2013-06-19 12:02:00,
2013-06-19 08:11:00,62.0,56.0,29.91,NE,37,4.0,15.0,81,0.00,,,0.07,121.000000,,2013-06-19 12:11:00,
2013-06-19 08:12:00,60.0,55.0,29.90,NNE,25,5.0,17.0,84,0.00,,,0.07,137.000000,,2013-06-19 12:12:00,
2013-06-19 08:22:00,60.0,55.0,29.90,NNE,25,5.0,17.0,84,0.00,,,0.07,137.000000,,2013-06-19 12:22:00,
2013-06-19 08:34:00,62.0,56.0,29.91,NE,37,4.0,15.0,81,0.00,,,0.07,121.000000,,2013-06-19 12:34:00,
2013-06-19 08:44:00,62.0,56.0,29.91,NE,37,4.0,15.0,81,0.00,,,0.07,121.000000,,2013-06-19 12:44:00,
2013-06-19 08:53:00,62.0,56.0,29.91,NE,37,4.0,15.0,81,0.00,,,0.07,121.000000,,2013-06-19 12:53:00,
2013-06-19 09:02:00,62.0,56.0,29.91,NE,37,4.0,15.0,81,0.00,,,0.07,121.000000,,2013-06-19 13:02:00,
2013-06-19 09:33:00,63.0,56.0,29.92,North,354,6.0,20.0,77,0.00,,,0.07,179.000000,,2013-06-19 13:33:00,
2013-06-19 09:43:00,63.0,56.0,29.92,North,354,6.0,20.0,77,0.00,,,0.07,179.000000,,2013-06-19 13:43:00,
2013-06-19 09:54:00,63.0,56.0,29.92,North,354,6.0,20.0,77,0.00,,,0.07,179.000000,,2013-06-19 13:54:00,
2013-06-19 10:02:00,64.0,57.0,29.93,NNE,17,6.0,14.0,77,0.00,,,0.07,206.000000,,2013-06-19 14:02:00,
2013-06-19 10:12:00,64.0,57.0,29.93,NNE,17,6.0,14.0,77,0.00,,,0.07,206.000000,,2013-06-19 14:12:00,
2013-06-19 10:22:00,64.0,57.0,29.93,NNE,17,6.0,14.0,77,0.00,,,0.07,206.000000,,2013-06-19 14:22:00,
2013-06-19 10:33:00,65.0,56.0,29.95,North,5,5.0,13.0,73,0.00,,,0.07,153.000000,,2013-06-19 14:33:00,
2013-06-19 10:44:00,65.0,56.0,29.95,North,5,5.0,13.0,73,0.00,,,0.07,153.000000,,2013-06-19 14:44:00,
2013-06-19 10:53:00,65.0,56.0,29.95,North,5,5.0,13.0,73,0.00,,,0.07,153.000000,,2013-06-19 14:53:00,
2013-06-19 11:02:00,65.0,56.0,29.95,North,5,5.0,13.0,73,0.00,,,0.07,153.000000,,2013-06-19 15:02:00,
2013-06-19 11:11:00,65.0,59.0,29.96,NNE,12,4.0,16.0,81,0.00,,,0.07,724.000000,,2013-06-19 15:11:00,
2013-06-19 11:22:00,65.0,60.0,29.97,North,356,7.0,16.0,83,0.00,,,0.07,297.000000,,2013-06-19 15:22:00,
2013-06-19 11:33:00,64.0,59.0,29.97,North,349,7.0,17.0,85,0.00,,,0.07,257.000000,,2013-06-19 15:33:00,
2013-06-19 11:43:00,64.0,59.0,29.97,North,349,7.0,17.0,85,0.00,,,0.07,257.000000,,2013-06-19 15:43:00,
2013-06-19 11:53:00,65.0,60.0,29.97,North,352,6.0,16.0,83,0.00,,,0.07,172.000000,,2013-06-19 15:53:00,
2013-06-19 12:01:00,65.0,60.0,29.97,North,354,7.0,14.0,84,0.00,,,0.07,155.000000,,2013-06-19 16:01:00,
2013-06-19 12:11:00,65.0,60.0,29.96,NNW,345,8.0,17.0,83,0.00,,,0.07,134.000000,,2013-06-19 16:11:00,
2013-06-19 12:22:00,65.0,59.0,29.97,North,1,8.0,15.0,82,0.00,,,0.07,998.000000,,2013-06-19 16:22:00,
2013-06-19 12:34:00,65.0,59.0,29.97,North,1,8.0,15.0,82,0.00,,,0.07,998.000000,,2013-06-19 16:34:00,
2013-06-19 12:43:00,65.0,60.0,29.98,North,354,5.0,13.0,83,0.00,,,0.07,867.000000,,2013-06-19 16:43:00,
2013-06-19 12:52:00,65.0,60.0,29.98,North,353,6.0,15.0,84,0.00,,,0.07,1028.000000,,2013-06-19 16:52:00,
2013-06-19 13:02:00,65.0,60.0,29.98,North,353,6.0,15.0,84,0.00,,,0.07,1028.000000,,2013-06-19 17:02:00,
2013-06-19 13:12:00,66.0,61.0,29.98,NNE,12,6.0,15.0,83,0.00,,,0.07,1030.000000,,2013-06-19 17:12:00,
2013-06-19 13:22:00,66.0,61.0,29.98,NNE,12,6.0,15.0,83,0.00,,,0.07,1030.000000,,2013-06-19 17:22:00,
2013-06-19 13:34:00,66.0,59.0,29.98,North,349,7.0,14.0,79,0.00,,,0.07,1025.000000,,2013-06-19 17:34:00,
2013-06-19 13:43:00,66.0,60.0,29.98,North,353,5.0,16.0,80,0.00,,,0.07,1025.000000,,2013-06-19 17:43:00,
2013-06-19 13:53:00,66.0,60.0,29.98,North,353,5.0,16.0,80,0.00,,,0.07,1025.000000,,2013-06-19 17:53:00,
2013-06-19 14:02:00,66.0,59.0,29.99,North,4,3.0,13.0,79,0.00,,,0.07,1005.000000,,2013-06-19 18:02:00,
2013-06-19 14:12:00,66.0,59.0,30.00,North,358,5.0,13.0,79,0.00,,,0.07,993.000000,,2013-06-19 18:12:00,
2013-06-19 14:24:00,66.0,59.0,30.00,NNW,347,4.0,16.0,79,0.00,,,0.07,979.000000,,2013-06-19 18:24:00,
2013-06-19 14:33:00,66.0,59.0,30.00,North,357,5.0,12.0,77,0.00,,,0.07,972.000000,,2013-06-19 18:33:00,
2013-06-19 14:44:00,66.0,59.0,30.01,North,354,5.0,14.0,78,0.00,,,0.07,942.000000,,2013-06-19 18:44:00,
2013-06-19 14:53:00,66.0,59.0,30.01,North,354,5.0,14.0,78,0.00,,,0.07,942.000000,,2013-06-19 18:53:00,
2013-06-19 15:01:00,66.0,59.0,30.01,North,4,8.0,13.0,77,0.00,,,0.07,923.000000,,2013-06-19 19:01:00,
2013-06-19 15:12:00,65.0,59.0,30.01,North,352,7.0,14.0,80,0.00,,,0.07,888.000000,,2013-06-19 19:12:00,
2013-06-19 15:22:00,65.0,58.0,30.01,North,5,6.0,16.0,77,0.00,,,0.07,875.000000,,2013-06-19 19:22:00,
2013-06-19 15:32:00,65.0,58.0,30.01,North,5,6.0,16.0,77,0.00,,,0.07,875.000000,,2013-06-19 19:32:00,
2013-06-19 15:43:00,65.0,58.0,30.02,NNW,341,7.0,13.0,77,0.00,,,0.07,826.000000,,2013-06-19 19:43:00,
2013-06-19 15:53:00,65.0,58.0,30.02,NNW,341,7.0,13.0,77,0.00,,,0.07,826.000000,,2013-06-19 19:53:00,
2013-06-19 16:02:00,65.0,58.0,30.03,NNW,344,4.0,11.0,79,0.00,,,0.07,200.000000,,2013-06-19 20:02:00,
2013-06-19 16:11:00,65.0,59.0,30.03,North,355,4.0,10.0,80,0.00,,,0.07,77.000000,,2013-06-19 20:11:00,
2013-06-19 16:22:00,65.0,58.0,30.03,NNE,32,3.0,11.0,79,0.00,,,0.07,69.000000,,2013-06-19 20:22:00,
2013-06-19 16:33:00,64.0,58.0,30.03,NNW,341,4.0,10.0,80,0.00,,,0.07,70.000000,,2013-06-19 20:33:00,
2013-06-19 16:42:00,64.0,58.0,30.03,NNW,341,4.0,10.0,80,0.00,,,0.07,70.000000,,2013-06-19 20:42:00,
2013-06-19 16:52:00,64.0,57.0,30.03,NNW,341,2.0,11.0,79,0.00,,,0.07,47.000000,,2013-06-19 20:52:00,
2013-06-19 17:02:00,64.0,57.0,30.03,North,351,3.0,9.0,79,0.00,,,0.07,56.000000,,2013-06-19 21:02:00,
2013-06-19 17:12:00,64.0,56.0,30.03,NNE,16,2.0,8.0,76,0.00,,,0.07,47.000000,,2013-06-19 21:12:00,
2013-06-19 17:22:00,64.0,57.0,30.03,NNE,22,1.0,6.0,77,0.00,,,0.07,49.000000,,2013-06-19 21:22:00,
2013-06-19 17:33:00,64.0,57.0,30.03,NNE,22,1.0,6.0,77,0.00,,,0.07,49.000000,,2013-06-19 21:33:00,
2013-06-19 17:44:00,64.0,57.0,30.03,NNE,22,1.0,6.0,77,0.00,,,0.07,49.000000,,2013-06-19 21:44:00,
2013-06-19 17:52:00,64.0,57.0,30.03,NNE,22,1.0,6.0,77,0.00,,,0.07,49.000000,,2013-06-19 21:52:00,
2013-06-19 18:02:00,66.0,57.0,30.03,North,354,0.0,5.0,74,0.00,,,0.07,42.000000,,2013-06-19 22:02:00,
2013-06-19 18:11:00,66.0,57.0,30.03,North,354,0.0,5.0,74,0.00,,,0.07,42.000000,,2013-06-19 22:11:00,
2013-06-19 18:22:00,66.0,58.0,30.04,NNW,346,1.0,4.0,76,0.00,,,0.07,35.000000,,2013-06-19 22:22:00,
2013-06-19 18:34:00,65.0,57.0,30.03,North,349,0.0,5.0,76,0.00,,,0.07,32.000000,,2013-06-19 22:34:00,
2013-06-19 18:43:00,65.0,58.0,30.04,North,352,0.0,3.0,77,0.00,,,0.07,37.000000,,2013-06-19 22:43:00,
2013-06-19 18:53:00,65.0,58.0,30.04,North,352,0.0,3.0,77,0.00,,,0.07,37.000000,,2013-06-19 22:53:00,
2013-06-19 19:02:00,65.0,58.0,30.04,North,352,0.0,3.0,77,0.00,,,0.07,37.000000,,2013-06-19 23:02:00,
2013-06-19 19:12:00,65.0,57.0,30.04,North,10,0.0,1.0,75,0.00,,,0.07,23.000000,,2013-06-19 23:12:00,
2013-06-19 19:23:00,65.0,57.0,30.04,North,10,0.0,1.0,75,0.00,,,0.07,23.000000,,2013-06-19 23:23:00,
2013-06-19 19:34:00,65.0,57.0,30.05,NNE,20,0.0,3.0,76,0.00,,,0.07,18.000000,,2013-06-19 23:34:00,
2013-06-19 19:43:00,64.0,57.0,30.05,NNE,20,0.0,0.0,77,0.00,,,0.07,16.000000,,2013-06-19 23:43:00,
2013-06-19 19:52:00,64.0,57.0,30.05,NNE,20,0.0,0.0,77,0.00,,,0.07,16.000000,,2013-06-19 23:52:00,
2013-06-19 20:02:00,64.0,58.0,30.06,NNE,20,0.0,0.0,81,0.00,,,0.07,9.000000,,2013-06-20 00:02:00,
2013-06-19 20:12:00,64.0,58.0,30.06,NNE,20,0.0,0.0,81,0.00,,,0.07,9.000000,,2013-06-20 00:12:00,
2013-06-19 20:22:00,63.0,58.0,30.06,NNE,20,0.0,0.0,83,0.00,,,0.07,5.000000,,2013-06-20 00:22:00,
2013-06-19 20:34:00,63.0,58.0,30.06,NNE,20,0.0,0.0,83,0.00,,,0.07,5.000000,,2013-06-20 00:34:00,
2013-06-19 20:44:00,63.0,58.0,30.06,NNE,20,0.0,0.0,83,0.00,,,0.07,5.000000,,2013-06-20 00:44:00,
2013-06-19 20:52:00,61.0,54.0,30.06,NNE,19,0.0,1.0,78,0.00,,,0.07,0.000000,,2013-06-20 00:52:00,
2013-06-19 21:02:00,61.0,54.0,30.06,NNE,19,0.0,1.0,78,0.00,,,0.07,0.000000,,2013-06-20 01:02:00,
2013-06-19 21:12:00,61.0,54.0,30.06,NNE,19,0.0,1.0,78,0.00,,,0.07,0.000000,,2013-06-20 01:12:00,
2013-06-19 21:22:00,59.0,54.0,30.08,NNE,20,0.0,1.0,82,0.00,,,0.07,0.000000,,2013-06-20 01:22:00,
2013-06-19 21:33:00,59.0,54.0,30.08,NNE,20,0.0,1.0,82,0.00,,,0.07,0.000000,,2013-06-20 01:33:00,
2013-06-19 21:44:00,58.0,53.0,30.10,West,268,1.0,4.0,82,0.00,,,0.07,0.000000,,2013-06-20 01:44:00,
2013-06-19 21:53:00,58.0,53.0,30.10,West,268,1.0,4.0,82,0.00,,,0.07,0.000000,,2013-06-20 01:53:00,
2013-06-19 22:02:00,58.0,51.0,30.11,West,266,0.0,1.0,78,0.00,,,0.07,0.000000,,2013-06-20 02:02:00,
2013-06-19 22:12:00,58.0,52.0,30.11,West,266,0.0,1.0,80,0.00,,,0.07,0.000000,,2013-06-20 02:12:00,
2013-06-19 22:24:00,58.0,53.0,30.12,West,266,0.0,0.0,82,0.00,,,0.07,0.000000,,2013-06-20 02:24:00,
2013-06-19 22:34:00,58.0,53.0,30.12,West,264,0.0,2.0,84,0.00,,,0.07,0.000000,,2013-06-20 02:34:00,
2013-06-19 22:43:00,57.0,53.0,30.12,West,265,0.0,4.0,87,0.00,,,0.07,0.000000,,2013-06-20 02:43:00,
2013-06-19 22:52:00,57.0,53.0,30.13,West,264,1.0,3.0,87,0.00,,,0.07,0.000000,,2013-06-20 02:52:00,
2013-06-19 23:02:00,57.0,53.0,30.13,West,265,0.0,3.0,88,0.00,,,0.07,0.000000,,2013-06-20 03:02:00,
2013-06-19 23:11:00,57.0,53.0,30.13,West,265,0.0,0.0,88,0.00,,,0.07,0.000000,,2013-06-20 03:11:00,
2013-06-19 23:22:00,57.0,53.0,30.13,West,265,0.0,0.0,88,0.00,,,0.07,0.000000,,2013-06-20 03:22:00,
2013-06-19 23:33:00,57.0,53.0,30.13,West,265,0.0,0.0,88,0.00,,,0.07,0.000000,,2013-06-20 03:33:00,
2013-06-19 23:43:00,56.0,52.0,30.14,West,264,0.0,2.0,88,0.00,,,0.07,0.000000,,2013-06-20 03:43:00,
2013-06-19 23:53:00,56.0,52.0,30.14,West,264,0.0,2.0,88,0.00,,,0.07,0.000000,,2013-06-20 03:53:00,